Wind_Speed
2 3 3 4 4 5 6 7 7 6 6 5 6 6 6 6 6 6 6 6 7 7 7 7 7 7 7 8 8 9 9 9 9 9 10 11 11 11 11 12 11 12 11
4 4 5 5 6 6 6 7 8 7 6 6 6 6 6 7 7 7 7 7 8 8 9 9 9 9 9 9 9 9 9 10 10 10 11 12 12 13 13 13 13 13 13
6 6 6 6 6 7 7 7 8 8 7 8 8 8 7 7 7 8 8 9 9 10 10 10 11 11 11 11 11 11 10 10 10 11 12 13 14 14 14 14 14 14 14
7 7 7 8 7 8 8 8 8 9 9 9 9 10 10 10 9 9 10 10 10 11 12 11 12 12 12 13 13 12 12 12 12 12 13 14 15 15 15 15 15 15 15
8 8 8 9 9 9 9 10 10 10 10 10 11 11 11 11 11 11 11 11 12 12 13 13 13 13 14 14 14 14 14 13 13 13 13 14 16 16 16 16 16 16 16
9 10 10 10 10 10 10 11 12 12 12 12 13 12 13 13 12 12 12 12 12 13 13 13 13 14 14 15 15 15 15 15 15 15 14 15 16 16 17 17 17 18 18
10 10 10 11 11 11 12 12 13 14 13 13 14 14 14 14 14 14 14 13 13 13 14 15 15 14 15 15 16 16 16 16 16 16 16 16 17 17 17 18 18 18 18
11 11 12 12 13 13 13 14 14 15 15 15 16 15 16 16 15 15 15 15 15 15 15 16 16 16 16 16 17 17 18 18 17 17 17 18 18 18 18 18 19 19 19
12 13 14 14 14 14 15 15 16 16 17 17 17 16 16 16 17 17 16 16 16 16 17 17 17 17 17 17 18 18 18 19 18 18 18 19 19 19 19 20 20 20 20
12 13 13 14 15 15 16 16 17 18 18 18 18 18 17 17 18 18 18 18 17 17 18 18 19 19 19 18 18 18 19 19 20 20 20 19 20 20 20 20 20 20 21
13 13 14 15 16 16 17 18 19 19 19 19 19 19 19 19 18 18 19 19 19 19 19 19 19 20 19 19 19 19 19 20 21 21 21 21 21 22 21 21 21 22 22
14 15 15 16 17 17 18 19 19 19 20 20 19 19 19 19 19 19 19 19 19 19 20 20 19 20 20 20 19 19 20 20 21 22 22 22 22 22 22 22 22 22 23
15 16 17 17 18 18 19 19 20 20 20 20 20 19 19 19 19 20 20 19 20 20 20 20 20 19 19 19 19 19 19 20 20 21 22 22 22 22 23 22 22 23 23
16 16 17 17 18 18 18 18 19 20 20 20 20 19 19 19 20 20 20 20 20 20 20 19 20 19 19 19 19 19 19 20 20 20 21 21 22 23 24 23 23 22 23
18 18 18 18 17 18 18 19 19 20 20 20 20 20 19 20 20 20 20 20 20 20 21 20 20 20 20 19 19 19 19 20 20 21 21 21 21 22 23 24 23 23 23
19 19 19 19 19 20 20 20 20 20 21 20 20 20 20 20 19 19 20 20 21 21 21 21 21 20 21 20 20 21 20 20 21 22 23 22 21 22 23 24 24 25 25
20 19 19 20 20 21 21 21 20 20 21 20 20 20 20 20 20 20 20 20 21 21 22 22 21 21 21 21 21 21 22 22 23 23 23 24 24 23 23 24 25 25 25
21 21 21 21 21 21 21 21 21 21 21 21 21 20 21 21 21 21 21 21 21 20 20 20 21 21 21 22 22 22 23 23 23 23 23 24 25 24 24 24 25 26 26
21 22 21 21 21 20 20 20 21 21 20 20 20 20 20 20 20 20 21 21 20 19 19 19 20 20 20 21 22 23 23 23 23 24 24 24 25 25 26 25 25 26 27
21 21 21 21 20 19 19 19 20 20 20 20 20 19 19 19 19 19 19 19 19 18 19 19 19 20 20 21 22 22 23 23 24 24 24 25 25 26 27 27 27 27 28
21 21 21 20 19 20 20 20 20 19 18 18 18 18 17 17 17 17 18 18 19 19 19 19 20 20 21 21 22 23 24 24 24 25 25 26 25 26 26 27 28 28 28
20 21 21 19 18 20 20 20 19 17 17 16 16 16 17 16 16 17 16 17 18 18 18 20 20 21 21 22 22 23 24 25 25 25 26 26 26 27 26 28 29 29 29
20 20 20 19 19 19 19 18 17 16 15 16 16 16 17 17 16 16 16 16 17 18 18 19 20 21 21 22 23 23 24 24 25 25 26 26 27 27 28 27 28 28 28
19 19 19 18 18 18 18 17 16 15 16 16 16 16 16 16 16 15 15 17 18 18 19 19 20 21 21 22 22 23 23 24 25 26 25 25 26 26 27 27 27 28 28
18 18 17 17 18 18 17 16 15 14 14 15 16 15 16 15 15 15 16 17 18 18 19 19 20 21 21 21 21 21 21 22 23 24 24 24 25 26 26 26 28 27 28
18 18 18 17 18 17 16 15 14 13 14 14 15 15 15 15 14 15 16 16 17 18 18 19 19 20 20 20 20 20 20 20 20 21 22 23 25 26 26 26 27 27 28
Wind_Direction
302 293 295 301 304 306 305 299 297 291 289 284 287 289 286 281 275 274 270 266 262 258 258 259 258 261 259 258 257 256 252 245 243 244 245 244 243 243 243 243 242 240 240
300 290 293 299 302 304 306 303 300 292 289 285 286 287 285 281 276 275 274 271 266 262 262 262 262 261 260 259 260 261 260 254 250 249 246 245 243 241 241 243 244 244 241
293 296 293 298 299 297 299 300 299 294 291 288 288 288 287 285 281 279 278 276 270 266 265 267 263 260 260 259 259 259 260 257 254 251 248 246 244 242 242 242 243 244 243
291 295 295 293 293 294 298 298 297 296 290 288 288 288 288 285 281 278 276 274 273 270 268 268 265 260 261 260 261 260 259 259 257 252 249 248 245 243 242 243 243 243 244
292 289 289 289 290 293 293 295 296 296 292 289 289 288 288 285 283 279 274 272 273 271 268 265 266 263 263 262 261 261 259 258 256 253 251 249 247 245 242 242 244 245 245
296 294 290 289 291 291 291 293 293 295 293 290 288 287 288 286 284 281 275 273 273 271 269 266 265 265 263 260 260 260 258 257 258 255 254 251 250 248 245 243 245 246 245
296 298 297 291 292 292 292 291 290 291 288 285 286 287 288 287 284 281 276 274 272 273 270 266 266 266 264 260 259 258 258 258 257 255 256 253 251 249 248 247 244 244 245
294 294 293 290 289 290 290 290 288 287 287 287 287 285 286 285 282 280 275 273 273 273 270 268 268 267 266 265 263 259 258 258 257 256 255 253 252 251 249 248 245 245 246
291 291 292 291 292 287 285 287 288 288 287 287 286 286 285 283 281 280 277 274 274 273 272 269 268 268 268 265 263 262 259 258 257 254 253 253 252 252 251 248 246 247 247
291 292 291 292 292 289 289 289 291 290 289 288 287 287 285 284 283 281 279 275 274 274 273 271 270 269 268 267 265 263 262 260 258 257 254 253 252 252 252 250 247 248 249
293 293 292 295 296 292 290 291 291 291 289 288 288 288 287 285 282 280 278 276 274 274 274 273 272 272 270 268 267 265 264 262 260 258 256 254 253 253 252 252 250 249 250
293 293 293 295 294 293 292 290 289 290 290 289 288 288 287 285 282 278 276 276 275 275 275 274 274 275 272 269 266 265 265 264 261 259 256 255 254 253 252 251 251 249 250
295 294 294 296 294 293 295 294 289 288 290 290 287 286 287 285 282 278 277 277 276 275 275 276 276 274 274 272 267 264 264 264 263 261 259 257 255 254 254 253 252 250 251
296 297 297 294 295 294 294 295 292 288 288 288 287 287 286 283 281 279 276 276 277 275 275 276 276 275 274 273 270 267 264 263 262 261 261 260 257 255 255 254 253 252 252
297 298 295 292 292 293 292 291 291 288 285 286 287 287 285 282 279 277 277 276 275 274 274 274 274 274 275 274 270 267 265 263 262 261 261 260 259 257 256 255 255 254 254
297 297 295 294 291 289 289 289 291 291 287 284 285 285 283 281 277 276 274 274 275 274 274 273 272 272 272 271 269 266 265 263 264 263 260 260 261 260 258 256 256 255 255
296 295 294 293 292 289 290 290 289 289 287 284 283 282 281 279 279 277 274 274 276 275 273 272 270 270 271 272 269 267 266 266 265 267 264 262 262 262 261 258 257 256 254
295 296 295 294 294 292 290 289 288 288 288 287 284 282 282 280 278 276 274 274 276 275 273 271 268 269 271 271 270 268 268 268 268 267 266 264 262 263 261 259 258 257 256
294 295 295 295 295 295 293 289 290 290 289 287 284 282 283 282 278 275 273 272 273 272 272 270 268 270 271 271 270 270 270 270 270 269 267 266 264 262 260 260 259 259 257
294 296 295 296 296 295 296 295 294 292 288 286 284 284 284 283 279 275 273 270 269 270 270 270 269 271 272 270 271 272 272 272 270 268 267 267 264 263 261 260 258 258 257
295 295 295 294 293 292 294 298 295 294 292 288 286 287 287 284 281 275 275 271 270 270 271 272 271 272 272 273 273 274 274 274 273 268 268 266 265 264 263 259 258 258 258
296 295 294 293 294 294 296 299 296 294 293 290 290 290 287 288 284 279 277 273 272 273 275 275 274 275 275 275 276 276 276 274 275 272 270 267 266 264 263 262 260 260 259
297 296 296 295 296 295 295 296 296 293 291 292 293 293 292 290 289 282 277 276 275 275 276 275 275 276 277 277 276 276 276 274 275 273 270 268 267 266 267 265 262 260 260
300 300 299 299 299 299 297 295 293 293 294 294 296 295 296 293 288 283 281 279 277 276 277 277 276 277 278 278 277 275 276 276 275 273 270 267 266 266 267 266 264 262 260
304 307 305 306 304 303 301 296 296 295 295 297 301 298 297 294 288 283 282 280 279 279 279 279 280 279 281 279 279 278 278 278 278 276 271 268 267 267 268 268 266 264 262
308 310 310 306 304 302 301 297 296 297 297 300 303 304 300 296 290 289 285 282 283 282 282 284 285 283 282 280 280 280 280 281 282 281 277 273 271 269 269 268 266 265 263
Height
5887 5887 5886 5886 5886 5885 5884 5884 5883 5882 5882 5881 5881 5880 5879 5879 5879 5878 5878 5878 5877 5877 5877 5877 5877 5877 5877 5877 5878 5878 5878 5878 5879 5879 5880 5881 5881 5882 5883 5884 5885 5885 5886
5886 5885 5885 5884 5884 5883 5883 5882 5881 5880 5880 5879 5879 5878 5877 5877 5877 5876 5876 5876 5875 5875 5875 5875 5875 5875 5875 5875 5875 5876 5876 5876 5876 5877 5878 5878 5879 5880 5881 5881 5882 5883 5884
5884 5883 5883 5883 5882 5881 5881 5880 5879 5878 5878 5877 5877 5876 5875 5875 5874 5874 5874 5873 5873 5873 5872 5872 5872 5872 5872 5872 5873 5873 5873 5874 5874 5874 5875 5875 5876 5877 5878 5879 5880 5881 5882
5883 5882 5881 5881 5880 5879 5879 5878 5877 5876 5875 5875 5874 5874 5873 5873 5872 5871 5871 5871 5870 5870 5870 5870 5869 5869 5870 5870 5870 5870 5870 5871 5871 5871 5872 5872 5873 5874 5875 5876 5877 5878 5879
5881 5880 5879 5879 5878 5877 5877 5876 5875 5874 5873 5873 5872 5871 5871 5870 5869 5868 5868 5868 5867 5867 5867 5867 5866 5866 5866 5867 5867 5867 5867 5868 5868 5868 5869 5869 5870 5871 5872 5873 5874 5875 5876
5879 5878 5877 5876 5876 5875 5874 5873 5872 5872 5871 5870 5869 5868 5868 5867 5866 5865 5865 5864 5864 5864 5863 5863 5863 5863 5863 5863 5863 5864 5864 5864 5864 5865 5865 5866 5866 5867 5868 5869 5870 5871 5873
5877 5876 5875 5874 5874 5873 5872 5871 5870 5869 5868 5867 5866 5865 5864 5864 5863 5862 5861 5861 5861 5860 5860 5860 5859 5859 5859 5859 5859 5860 5860 5860 5860 5861 5862 5862 5863 5864 5865 5866 5867 5868 5869
5874 5873 5872 5871 5871 5870 5869 5868 5867 5866 5865 5864 5863 5862 5861 5860 5859 5858 5858 5857 5857 5857 5856 5856 5856 5856 5856 5856 5856 5856 5856 5856 5856 5857 5858 5858 5859 5860 5861 5862 5863 5864 5866
5872 5871 5870 5869 5868 5867 5866 5865 5863 5862 5861 5860 5859 5858 5857 5856 5855 5854 5853 5853 5852 5852 5852 5851 5851 5851 5851 5851 5851 5852 5852 5852 5852 5853 5854 5854 5855 5856 5857 5858 5859 5860 5861
5869 5868 5867 5866 5865 5863 5862 5861 5860 5858 5857 5856 5854 5853 5852 5852 5851 5850 5849 5848 5848 5847 5847 5847 5847 5847 5846 5846 5847 5847 5847 5848 5848 5849 5849 5850 5851 5852 5852 5853 5854 5855 5857
5866 5865 5863 5862 5861 5860 5858 5857 5856 5854 5853 5851 5850 5849 5848 5847 5846 5845 5844 5844 5843 5843 5842 5842 5842 5842 5841 5841 5842 5842 5842 5843 5844 5844 5845 5845 5846 5847 5848 5849 5849 5851 5852
5862 5861 5860 5859 5857 5856 5854 5853 5851 5850 5848 5847 5845 5844 5843 5842 5841 5840 5840 5839 5838 5838 5838 5837 5837 5836 5836 5836 5836 5837 5837 5838 5838 5839 5839 5840 5841 5842 5843 5844 5845 5846 5847
5859 5858 5856 5855 5853 5852 5850 5849 5847 5845 5844 5842 5841 5839 5838 5837 5836 5836 5835 5834 5833 5833 5833 5832 5832 5831 5831 5831 5831 5832 5832 5832 5832 5833 5834 5835 5836 5837 5838 5839 5839 5841 5842
5856 5854 5853 5851 5849 5848 5846 5845 5843 5841 5839 5837 5835 5834 5833 5832 5831 5830 5830 5829 5828 5828 5828 5827 5827 5827 5827 5826 5826 5826 5827 5827 5827 5828 5829 5830 5830 5831 5832 5833 5834 5835 5836
5852 5851 5849 5847 5846 5844 5842 5840 5838 5836 5834 5832 5831 5829 5827 5826 5826 5825 5824 5824 5823 5823 5822 5822 5822 5822 5822 5822 5821 5822 5822 5822 5822 5823 5823 5824 5825 5826 5827 5828 5829 5830 5831
5849 5847 5845 5844 5842 5840 5838 5836 5834 5831 5829 5827 5825 5824 5822 5821 5820 5820 5819 5819 5818 5818 5817 5817 5817 5817 5817 5816 5816 5817 5817 5817 5817 5817 5818 5819 5820 5820 5821 5822 5823 5824 5825
5844 5843 5841 5839 5837 5835 5833 5831 5829 5826 5824 5822 5820 5818 5817 5816 5815 5814 5814 5813 5813 5812 5812 5812 5812 5812 5811 5811 5811 5811 5811 5812 5812 5812 5812 5813 5814 5814 5815 5816 5817 5818 5819
5840 5838 5836 5834 5832 5830 5828 5826 5824 5821 5819 5817 5815 5813 5811 5810 5809 5809 5808 5808 5807 5807 5806 5806 5806 5806 5806 5806 5805 5805 5806 5806 5807 5807 5807 5808 5808 5809 5809 5810 5810 5812 5812
5836 5834 5831 5829 5827 5825 5823 5821 5818 5816 5813 5811 5809 5807 5805 5804 5803 5803 5803 5803 5802 5802 5801 5801 5801 5801 5801 5800 5800 5800 5800 5800 5801 5801 5801 5802 5802 5802 5803 5804 5804 5805 5806
5831 5829 5827 5825 5822 5820 5818 5816 5814 5811 5808 5806 5804 5802 5800 5799 5798 5797 5797 5797 5797 5797 5797 5796 5796 5796 5795 5795 5794 5794 5794 5794 5794 5795 5795 5795 5795 5796 5796 5797 5798 5798 5799
5826 5824 5822 5820 5818 5816 5814 5811 5809 5806 5803 5801 5799 5797 5795 5794 5793 5793 5792 5792 5792 5792 5792 5792 5791 5791 5790 5790 5789 5789 5788 5788 5788 5788 5788 5788 5789 5789 5789 5790 5790 5791 5791
5821 5819 5817 5815 5813 5811 5809 5807 5804 5802 5799 5797 5795 5793 5792 5790 5789 5788 5788 5788 5788 5787 5787 5787 5786 5786 5785 5784 5783 5783 5782 5782 5781 5781 5781 5781 5781 5781 5782 5782 5782 5783 5783
5817 5815 5813 5811 5809 5806 5804 5802 5800 5798 5796 5794 5792 5790 5788 5787 5785 5784 5784 5783 5783 5783 5782 5782 5781 5780 5779 5778 5777 5777 5776 5775 5774 5774 5773 5773 5773 5773 5773 5773 5774 5774 5775
5813 5810 5808 5806 5804 5802 5800 5798 5796 5794 5792 5790 5788 5786 5784 5783 5782 5780 5780 5779 5779 5778 5777 5777 5776 5775 5774 5773 5771 5770 5770 5768 5767 5767 5766 5765 5765 5765 5765 5765 5765 5766 5766
5809 5806 5804 5802 5799 5797 5795 5793 5791 5790 5788 5786 5784 5782 5781 5779 5778 5776 5775 5775 5774 5773 5772 5771 5770 5769 5768 5767 5765 5764 5763 5762 5760 5759 5759 5758 5758 5758 5758 5758 5757 5758 5758
5805 5802 5800 5797 5795 5793 5791 5789 5788 5786 5785 5783 5780 5779 5777 5776 5774 5772 5771 5770 5769 5768 5767 5766 5764 5763 5762 5761 5760 5758 5757 5756 5754 5753 5752 5751 5751 5750 5750 5750 5750 5750 5750